STARLINK-34110, 63811

Orbit data source: Space-Track

STARLINK-34110, 63811 is a payload satellite owned by SpaceX/Seattle (US) in LEO that was launched on Sun, 04 May 2025 UTC via an FALCON 9 launch vehicle from the Air Force Eastern Test Range (AFETR). Payload-class satellites include a variety of spacecraft equipped with specific instruments for various scientific and technological missions. These include communications satellites like Starlink; space stations such as the ISS; scientific satellites like the Hubble; Earth observation satellites from companies like Planet Labs, Umbra, and HawkEye 360; GPS; miniature CubeSats for education and research; and military/defense satellites.

Loading next visibility...
Identifier
63811, 2025-092H
Orbit
LEO
Country
Flag of USUS
Related business
Manufacturer
SpaceX/Seattle
Mission
Operational Commercial Communications
Bus & Motor
STARLINK V2MO, Unknown motor
Mass
575 kg wet, ~530 kg dry
Launch date (UTC)
2025-05-04 (6 months ago)
Launch vehicle
FALCON 9
Launch site
Air Force Eastern Test Range (AFETR)
Object type
Payload
Rocket body
Debris
Shape & HBR
Box + 2 Pan, 17.7 m
Radar Cross Section
36.964 m², Large (>1 m²)

Expand to show TLE details & history
Last TLE update: 16 hours ago

TLE from 16 hours ago
0 STARLINK-34110
1 63811U 25092H   25300.76904955  .00042296  00000-0  15359-2 0  9990
2 63811  42.9991 203.4323 0000760 312.5497  47.5290 15.27619048 28332
Epoch: 2025-10-27T18:27Z
TLE epoch observation values (Epoch: 2025-10-27T18:27:25.881Z)
Latitude
-0.00003°
Longitude
-109.79171°
Altitude
482.355 km
Speed
7.626 km/s
True Right ascension
13h 33m 43s
True Declination
0° 00' 00"
Sunlit
Object was in daylight at epoch
Visualization orbit readout
Latitude
Unknown
Longitude
Unknown
Altitude
Unknown
Speed
Unknown
Apparent Right ascension
Unknown
Apparent Declination
Unknown
Sunlit
N/A
Visualization observer readout
Local Sidereal Time
05:33:11
Azimuth
Unknown
Elevation
Unknown
Doppler factor
Unknown
Orbital elements
Apogee altitude
485.399 km
Perigee altitude
484.356 km
Semi-major axis
6,863.015 km
Eccentricity
0.00008
Inclination
42.9991°
RAAN
203.4323°
Arg. of periapsis
312.5497°
True anomaly
47.53542°
Mean anomaly
47.529°
Eccentric anomaly
47.53221°
Mean motion
3.81743 °/min
Orbital period
94.3 mins
BSTAR
0.0015359
Loading maneuver chart data...
Computing Atmospheric mass density...
Loading historical data...
Loading historical data...
Loading historical data...
Loading historical data...
Loading historical data...
Loading historical data...
Loading historical data...

Documentation

Showing up to 5 results
|